QZS-1R (MICHIBIKI-1R)

Last updated on Mon Oct 20 2025 00:02:50 GMT+0000 (Coordinated Universal Time)

1 49336U 21096A 25292.29262400 -.00000225 00000+0 00000+0 0 9996 2 49336 36.9632 83.1657 0747999 270.3538 276.0208 1.00275777 14599
UTC large
Height (km)
Speed (km/s)
/
Latitude / Longitude
Inclination (degrees)
Orbital Period (minutes)
Azimuth
Elevation
Range (km)
Doppler Factor

Next 0 passes for location: London (51.5072 / 0.1276)

Sorry there are no passes over London.